Location: Mount Tamalpais State Park
(37.9108°N, 122.6128°W)
Time: 14:37:17
(UTC-07:00)

Cosmos 1814 Rocket - Visible Passes

Search period start: 31 July 2014 00:00
Search period end: 10 August 2014 00:00
Orbit: 745 x 789 km, 74.1° (Epoch: 30 July)

Date Brightness Start Highest point End Pass type
(mag) Time Alt. Az. Time Alt. Az. Time Alt. Az.
31 Jul 7.3 05:09:06 10° NNE 05:12:31 17° ENE 05:15:56 10° E visible
31 Jul 7.1 21:26:54 10° WSW 21:30:24 18° WNW 21:33:57 10° NNW visible
01 Aug 6.3 20:48:20 10° SW 20:52:51 30° WNW 20:57:26 10° N visible
02 Aug 5.4 05:35:16 10° N 05:40:24 45° ENE 05:45:30 10° SE visible
03 Aug 6.4 04:58:26 10° N 05:02:56 27° ENE 05:07:24 10° ESE visible
03 Aug 7.8 21:19:25 10° WNW 21:20:54 11° NW 21:22:24 10° NW visible
04 Aug 7.1 04:22:04 10° NNE 04:25:21 16° ENE 04:28:37 10° E visible
04 Aug 7.2 20:39:35 10° WSW 20:43:13 19° WNW 20:46:55 10° NNW visible
05 Aug 4.3 05:25:14 10° NNW 05:30:37 75° ENE 05:35:56 10° SSE visible
06 Aug 5.4 04:48:09 10° N 04:53:15 43° ENE 04:58:18 10° SE visible
07 Aug 6.3 04:11:22 10° N 04:15:47 26° ENE 04:20:10 10° ESE visible
08 Aug 6.9 03:35:03 10° NNE 03:38:11 16° ENE 03:41:18 10° E visible
08 Aug 4.0 05:15:25 10° NNW 05:20:44 67° WSW 05:26:00 10° S visible
09 Aug 4.3 04:38:06 10° NNW 04:43:28 71° ENE 04:48:47 10° SSE visible
